Weather History for Flint, MI

Change the Weather History Date:

Monday, October 7, 2013

  Actual Average Record
Temperature  
Mean Temperature 55 °F 52 °F  
Max Temperature 62 °F 63 °F 88 °F (2007)
Min Temperature 47 °F 42 °F 23 °F (1964)
Degree Days  
Heating Degree Days 10 13  
Month to date heating degree days 14 83  
Since 1 July heating degree days 188 293  
Cooling Degree Days 0 0  
Month to date cooling degree days 15 2  
Year to date cooling degree days 758 528  
Growing Degree Days 4 (Base 50)    
Moisture  
Dew Point 46 °F    
Average Humidity 73    
Maximum Humidity 93    
Minimum Humidity 52    
Precipitation  
Precipitation 0.05 in 0.09 in 1.16 in (1922)
Month to date precipitation 0.84 0.66  
Year to date precipitation 27.04 24.97  
Snow  
Snow 0.00 in 0.00 in 0.00 in ()
Month to date snowfall 0.0 0.0  
Since 1 July snowfall 0.0 0.0  
Since 1 September snowfall 0.0 0.0  
Snow Depth 0.00 in    
Sea Level Pressure  
Sea Level Pressure 29.80 in    
Wind  
Wind Speed 10 mph (WSW)    
Max Wind Speed 21 mph    
Max Gust Speed 25 mph    
Visibility 10 miles    
Events Rain    
T = Trace of Precipitation, MM = Missing Value Source: NWS Daily Summary

Daily Weather History Graph

Daily Weather History Graph

Search for Another Location

Airport:

Trip Planner

Search our weather history database for the weather conditions in past years. The results will help you decide how hot, cold, wet, or windy it might be!

Date:

Astronomy

Oct. 07, 2013 Rise Set
Actual Time 7:39 AM EDT 7:05 PM EDT
Civil Twilight 7:11 AM EDT 7:33 PM EDT
Nautical Twilight 6:38 AM EDT 8:06 PM EDT
Astronomical Twilight 6:05 AM EDT 8:39 PM EDT
Moon 10:32 AM EDT (10/7) 8:44 PM EDT (10/7)
Length of Visible Light 12h 22m
Length of Day
11h 25m
Waxing Crescent, 8% of the Moon is Illuminated
Oct 7
Waxing Crescent
Oct 11
First Quarter
Oct 18
Full
Oct 26
Last Quarter
Nov 3
New

Hourly Weather History & Observations

Time (EDT) Temp. Dew Point Humidity Pressure Visibility Wind Dir Wind Speed Gust Speed Precip Events Conditions
12:53 AM 53.1 °F 50.0 °F 89% 29.69 in 10.0 mi SW 5.8 mph - N/A   Clear
1:53 AM 53.1 °F 51.1 °F 93% 29.69 in 10.0 mi SW 6.9 mph - N/A   Clear
2:53 AM 54.0 °F 50.0 °F 86% 29.69 in 10.0 mi WSW 5.8 mph - N/A   Overcast
3:20 AM 53.6 °F 50.0 °F 88% 29.69 in 9.0 mi SW 6.9 mph - N/A   Overcast
3:37 AM 53.6 °F 50.0 °F 88% 29.69 in 10.0 mi WSW 8.1 mph - 0.00 in   Overcast
3:53 AM 54.0 °F 48.9 °F 83% 29.69 in 10.0 mi WSW 6.9 mph - 0.00 in   Overcast
4:08 AM 53.6 °F 48.2 °F 82% 29.70 in 8.0 mi WSW 11.5 mph - 0.00 in Rain Light Rain
4:23 AM 53.6 °F 48.2 °F 82% 29.69 in 10.0 mi West 10.4 mph - 0.00 in   Overcast
4:53 AM 53.1 °F 46.9 °F 80% 29.70 in 10.0 mi WSW 11.5 mph - 0.00 in   Overcast
5:53 AM 50.0 °F 44.1 °F 80% 29.71 in 10.0 mi SW 8.1 mph - N/A   Mostly Cloudy
6:53 AM 48.0 °F 42.1 °F 80% 29.73 in 10.0 mi SW 8.1 mph - N/A   Scattered Clouds
7:53 AM 46.9 °F 42.1 °F 83% 29.74 in 10.0 mi SW 9.2 mph 18.4 mph N/A   Mostly Cloudy
8:53 AM 48.0 °F 42.1 °F 80% 29.75 in 10.0 mi SW 9.2 mph - N/A   Mostly Cloudy
9:53 AM 51.1 °F 42.1 °F 71% 29.76 in 10.0 mi WSW 13.8 mph - N/A   Mostly Cloudy
10:53 AM 50.0 °F 43.0 °F 77% 29.77 in 10.0 mi WSW 15.0 mph 21.9 mph N/A   Overcast
11:11 AM 53.6 °F 44.6 °F 72% 29.77 in 10.0 mi SW 13.8 mph - N/A   Overcast
11:53 AM 53.1 °F 45.0 °F 74% 29.78 in 10.0 mi SW 12.7 mph - N/A   Mostly Cloudy
12:53 PM 55.9 °F 46.0 °F 69% 29.79 in 10.0 mi WSW 15.0 mph 21.9 mph N/A   Overcast
1:53 PM 54.0 °F 48.9 °F 83% 29.80 in 5.0 mi WSW 12.7 mph 23.0 mph 0.01 in Rain Light Rain
2:53 PM 55.0 °F 50.0 °F 83% 29.83 in 5.0 mi West 16.1 mph 25.3 mph 0.03 in Rain Light Rain
3:46 PM 55.4 °F 50.0 °F 82% 29.86 in 10.0 mi WNW 11.5 mph 20.7 mph 0.01 in Rain Light Rain
3:53 PM 55.0 °F 50.0 °F 83% 29.86 in 10.0 mi WNW 11.5 mph - 0.01 in Rain Light Rain
4:53 PM 59.0 °F 44.1 °F 58% 29.89 in 10.0 mi WNW 11.5 mph - N/A   Scattered Clouds
5:53 PM 62.1 °F 44.1 °F 52% 29.92 in 10.0 mi West 16.1 mph - N/A   Overcast
6:53 PM 57.9 °F 42.1 °F 56% 29.96 in 10.0 mi WNW 9.2 mph - N/A   Clear
7:53 PM 51.1 °F 42.1 °F 71% 30.00 in 10.0 mi West 5.8 mph - N/A   Clear
8:53 PM 51.1 °F 42.1 °F 71% 30.04 in 10.0 mi West 5.8 mph - N/A   Clear
9:53 PM 48.9 °F 41.0 °F 74% 30.08 in 10.0 mi SW 4.6 mph - N/A   Clear
10:53 PM 46.9 °F 41.0 °F 80% - 10.0 mi SW 4.6 mph - N/A   Clear
11:53 PM 48.0 °F 42.1 °F 80% - 10.0 mi SW 5.8 mph - N/A   Clear